Terminal Aerodrome Forecast
Issued by NWS Wakefield, VA

Home | Current Version | Previous Version | Text Only | Print | Product List | Glossary On
Versions: 1 2 3 4 5 6 7 8 9 10 11 12 13 14 15 16 17 18 19 20 21
000
FTUS41 KAKQ 221300 AAA
TAFRIC
TAF AMD
KRIC 221301Z 2213/2312 VRB03KT P6SM SCT040 BKN250
     FM221500 16008KT P6SM SCT040 BKN250
     FM222300 18005KT P6SM OVC250=

USA.gov is the U.S. government's official web portal to all federal, state and local government web resources and services.